K3JAR-3 Weather Reports


time (UTC)temp
C
wind
direction
speed
KPH
gust
KPH
rain 1hr
cm
rain 24hr
cm
rain mn
cm
humidity
%
barometer
mb
20260906234030 36 118 6.4 14.5 0.00 0.00 0.00 42 1012.5
20260906233015 36 98 11.3 16.1 0.00 0.00 0.00 42 1012.6
20260906232018 36 100 11.3 16.1 0.00 0.00 0.00 42 1012.7
20260906231022 37 83 12.9 20.9 0.00 0.00 0.00 41 1012.6
20260906230030 37 93 11.3 16.1 0.00 0.00 0.00 40 1012.7
20260906225033 37 90 8.0 11.3 0.00 0.00 0.00 40 1012.7
20260906224032 37 92 9.7 19.3 0.00 0.00 0.00 39 1012.7
20260906223017 37 110 6.4 11.3 0.00 0.00 0.00 39 1012.7
20260906222021 37 97 11.3 17.7 0.00 0.00 0.00 39 1012.8
20260906221024 37 124 6.4 9.7 0.00 0.00 0.00 40 1012.9
20260906220022 37 126 6.4 14.5 0.00 0.00 0.00 41 1012.9
20260906215018 37 90 12.9 17.7 0.00 0.00 0.00 40 1013.1
20260906214016 38 80 9.7 14.5 0.00 0.00 0.00 40 1013.2
20260906213019 38 100 8.0 12.9 0.00 0.00 0.00 41 1013.2
20260906212043 37 106 11.3 17.7 0.00 0.00 0.00 42 1013.3
20260906211026 37 90 12.9 19.3 0.00 0.00 0.00 41 1013.4
20260906210029 37 96 9.7 19.3 0.00 0.00 0.00 41 1013.6
20260906205027 37 85 11.3 14.5 0.00 0.00 0.00 43 1013.6
20260906204030 37 68 9.7 16.1 0.00 0.00 0.00 42 1013.7
20260906203015 38 94 11.3 17.7 0.00 0.00 0.00 40 1013.8
20260906202019 38 103 9.7 17.7 0.00 0.00 0.00 40 1013.9
20260906201022 38 115 9.7 16.1 0.00 0.00 0.00 40 1014.1
20260906200025 38 115 6.4 11.3 0.00 0.00 0.00 42 1014.2
20260906195033 37 109 9.7 12.9 0.00 0.00 0.00 42 1014.2
20260906194052 37 76 8.0 14.5 0.00 0.00 0.00 42 1014.4
20260906193037 36 81 11.3 16.1 0.00 0.00 0.00 44 1014.5
20260906192101 37 89 9.7 16.1 0.00 0.00 0.00 42 1014.6
20260906191029 37 117 6.4 11.3 0.00 0.00 0.00 42 1014.7
20260906190027 37 124 8.0 16.1 0.00 0.00 0.00 43 1014.8
20260906185031 37 107 8.0 11.3 0.00 0.00 0.00 44 1014.9
20260906184017 37 119 9.7 17.7 0.00 0.00 0.00 44 1015.1
20260906183019 36 116 6.4 12.9 0.00 0.00 0.00 46 1015.2
20260906182027 36 117 6.4 19.3 0.00 0.00 0.00 46 1015.3
20260906181020 37 74 9.7 16.1 0.00 0.00 0.00 45 1015.4
20260906180037 36 130 4.8 9.7 0.00 0.00 0.00 46 1015.6
20260906175032 36 95 6.4 11.3 0.00 0.00 0.00 48 1015.9
20260906174018 36 84 9.7 16.1 0.00 0.00 0.00 47 1016.1
20260906173021 36 100 6.4 11.3 0.00 0.00 0.00 49 1016.2
20260906172024 36 105 8.0 12.9 0.00 0.00 0.00 50 1016.4
20260906171047 35 171 6.4 11.3 0.00 0.00 0.00 52 1016.6
20260906170035 35 79 6.4 9.7 0.00 0.00 0.00 52 1016.6
20260906165016 35 95 8.0 16.1 0.00 0.00 0.00 52 1016.6
20260906164019 34 86 8.0 16.1 0.00 0.00 0.00 54 1016.6
20260906163022 34 102 9.7 12.9 0.00 0.00 0.00 53 1016.6
20260906162126 34 106 8.0 12.9 0.00 0.00 0.00 54 1016.6
20260906161030 35 84 9.7 11.3 0.00 0.00 0.00 55 1016.6
20260906160052 33 112 4.8 6.4 0.00 0.00 0.00 59 1016.6
20260906155017 33 108 4.8 8.0 0.00 0.00 0.00 61 1016.8
20260906154021 32 105 4.8 8.0 0.00 0.00 0.00 62 1016.6
20260906153024 32 92 6.4 9.7 0.00 0.00 0.00 62 1016.6
20260906152047 32 102 4.8 8.0 0.00 0.00 0.00 64 1016.6
20260906151031 31 89 6.4 8.0 0.00 0.00 0.00 66 1016.5
20260906150016 32 94 4.8 8.0 0.00 0.00 0.00 64 1016.5
20260906145018 31 141 3.2 6.4 0.00 0.00 0.00 69 1016.5
20260906144023 31 54 3.2 6.4 0.00 0.00 0.00 70 1016.3
20260906143019 30 121 4.8 8.0 0.00 0.00 0.00 72 1016.3
20260906142041 30 117 3.2 4.8 0.00 0.00 0.00 73 1016.3
20260906141031 30 104 4.8 6.4 0.00 0.00 0.00 74 1016.3
20260906140017 29 88 4.8 6.4 0.00 0.00 0.00 74 1016.1
20260906135020 30 93 6.4 8.0 0.00 0.00 0.00 73 1016.1
20260906134024 28 150 3.2 3.2 0.00 0.00 0.00 77 1016.1
20260906133027 28 86 3.2 4.8 0.00 0.00 0.00 79 1016.1
20260906132050 28 90 3.2 4.8 0.00 0.00 0.00 80 1016.1
20260906131028 27 77 3.2 4.8 0.00 0.00 0.00 81 1016.1
20260906130032 27 83 1.6 3.2 0.00 0.00 0.00 83 1015.9
20260906125021 27 53 3.2 4.8 0.00 0.00 0.00 85 1015.8
20260906124020 26 0.0 0.0 0.00 0.00 0.00 88 1015.8
20260906123043 24 0.0 0.0 0.00 0.00 0.00 92 1015.7
20260906122026 24 100 3.2 3.2 0.00 0.00 0.00 93 1015.7
20260906121029 24 0.0 0.0 0.00 0.00 0.00 92 1015.7
20260906120055 24 0.0 0.0 0.00 0.00 0.00 91 1015.6
20260906115018 24 0.0 0.0 0.00 0.00 0.00 90 1015.4
20260906114021 25 0.0 0.0 0.00 0.00 0.00 90 1015.2
20260906113045 25 0.0 0.0 0.00 0.00 0.00 90 1015.3
20260906112026 25 112 3.2 4.8 0.00 0.00 0.00 89 1015.3
20260906111024 25 106 0.0 1.6 0.00 0.00 0.00 87 1015.1
20260906110015 25 0.0 0.0 0.00 0.00 0.00 87 1015.0
20260906105019 25 98 1.6 3.2 0.00 0.00 0.00 88 1015.1
20260906104016 25 90 3.2 4.8 0.00 0.00 0.00 88 1015.0
20260906103025 25 0.0 0.0 0.00 0.00 0.00 87 1014.9
20260906102028 25 0.0 0.0 0.00 0.00 0.00 87 1014.8
20260906101032 25 121 0.0 1.6 0.00 0.00 0.00 87 1014.8
20260906100037 25 99 3.2 3.2 0.00 0.00 0.00 88 1014.6
20260906095020 25 57 1.6 3.2 0.00 0.00 0.00 88 1014.5
20260906094025 25 0.0 0.0 0.00 0.00 0.00 87 1014.4
20260906093027 25 0.0 0.0 0.00 0.00 0.00 86 1014.4
20260906092030 25 0.0 0.0 0.00 0.00 0.00 86 1014.4
20260906091015 25 0.0 0.0 0.00 0.00 0.00 85 1014.3
20260906090019 26 0.0 0.0 0.00 0.00 0.00 83 1014.3
20260906085022 26 112 0.0 1.6 0.00 0.00 0.00 83 1014.3
20260906084025 26 162 3.2 3.2 0.00 0.00 0.00 82 1014.2
20260906083029 26 160 3.2 4.8 0.00 0.00 0.00 82 1014.3
20260906082032 26 158 3.2 4.8 0.00 0.00 0.00 81 1014.3
20260906081018 26 175 4.8 6.4 0.00 0.00 0.00 81 1014.4
20260906080021 27 166 4.8 6.4 0.00 0.00 0.00 80 1014.4
20260906075024 27 173 4.8 8.0 0.00 0.00 0.00 79 1014.4
20260906074027 27 163 6.4 11.3 0.00 0.00 0.00 79 1014.5
20260906073024 27 174 8.0 11.3 0.00 0.00 0.00 78 1014.5
20260906072015 27 183 9.7 12.9 0.00 0.00 0.00 78 1014.5
20260906071019 27 163 8.0 11.3 0.00 0.00 0.00 78 1014.7
20260906070041 27 153 6.4 9.7 0.00 0.00 0.00 78 1014.8
20260906065026 27 162 8.0 9.7 0.00 0.00 0.00 78 1014.8
20260906064029 27 160 6.4 11.3 0.00 0.00 0.00 78 1014.9
20260906063032 27 170 4.8 4.8 0.00 0.00 0.00 78 1015.0
20260906062017 28 156 4.8 6.4 0.00 0.00 0.00 77 1015.0
20260906061046 28 165 4.8 8.0 0.00 0.00 0.00 77 1015.0
20260906060105 28 163 4.8 6.4 0.00 0.00 0.00 76 1014.9
20260906055027 28 165 4.8 8.0 0.00 0.00 0.00 76 1014.8
20260906054031 28 163 4.8 9.7 0.00 0.00 0.00 76 1014.8
20260906053016 28 174 4.8 4.8 0.00 0.00 0.00 76 1014.8
20260906052019 28 147 4.8 6.4 0.00 0.00 0.00 75 1014.7
20260906051022 28 174 6.4 9.7 0.00 0.00 0.00 75 1014.8
20260906050031 28 174 4.8 6.4 0.00 0.00 0.00 75 1014.8
20260906045049 28 163 3.2 4.8 0.00 0.00 0.00 74 1014.8
20260906044032 28 164 6.4 8.0 0.00 0.00 0.00 74 1014.8
20260906043017 28 153 4.8 6.4 0.00 0.00 0.00 73 1014.8
20260906042025 28 157 4.8 8.0 0.00 0.00 0.00 72 1014.7
20260906041024 29 153 4.8 6.4 0.00 0.00 0.00 71 1014.7
20260906040027 29 165 6.4 9.7 0.00 0.00 0.00 70 1014.6
20260906035025 29 160 4.8 4.8 0.00 0.00 0.00 70 1014.7
20260906034016 29 177 4.8 6.4 0.00 0.00 0.00 69 1014.8
20260906033020 30 159 6.4 8.0 0.00 0.00 0.00 68 1014.8
20260906032057 30 169 6.4 9.7 0.00 0.00 0.00 68 1014.7
20260906031026 30 162 6.4 8.0 0.00 0.00 0.00 68 1014.7
20260906030029 30 155 6.4 11.3 0.00 0.00 0.00 67 1014.7
20260906025037 30 152 8.0 11.3 0.00 0.00 0.00 66 1014.6
20260906024038 30 144 8.0 12.9 0.00 0.00 0.00 66 1014.3
20260906023021 30 127 8.0 11.3 0.00 0.00 0.00 65 1014.2
20260906022024 30 122 8.0 12.9 0.00 0.00 0.00 65 1014.1
20260906021027 30 139 6.4 8.0 0.00 0.00 0.00 64 1013.9
20260906020031 30 159 8.0 11.3 0.00 0.00 0.00 64 1013.8
20260906015016 30 145 8.0 16.1 0.00 0.00 0.00 64 1013.6
20260906014024 31 141 8.0 11.3 0.00 0.00 0.00 63 1013.4
20260906013022 31 131 6.4 9.7 0.00 0.00 0.00 62 1013.3
20260906012026 31 140 9.7 17.7 0.00 0.00 0.00 61 1013.2
20260906011029 31 139 9.7 14.5 0.00 0.00 0.00 59 1013.1
20260906010033 32 119 8.0 14.5 0.00 0.00 0.00 57 1013.0
20260906005017 32 117 12.9 19.3 0.00 0.00 0.00 56 1013.1
20260906004021 33 90 14.5 20.9 0.00 0.00 0.00 54 1012.9
20260906003024 35 97 11.3 17.7 0.00 0.00 0.00 45 1012.8
20260906002047 35 92 6.4 9.7 0.00 0.00 0.00 44 1012.7
20260906001024 36 90 6.4 12.9 0.00 0.00 0.00 43 1012.6
20260906000016 36 101 6.4 9.7 0.00 0.00 0.00 43 1012.5
20260905235019 36 100 8.0 12.9 0.00 0.00 0.00 40 1012.4